Weather History for KTCC - July, 2013

Change the Weather History Date:

Wednesday, July 17, 2013

  Actual Average Record
Temperature  
Mean Temperature 71 °F -  
Max Temperature 79 °F 93 °F 104 °F (1925)
Min Temperature 64 °F 65 °F 57 °F (1953)
Cooling Degree Days 6    
Growing Degree Days 21 (Base 50)    
Moisture  
Dew Point 60 °F    
Average Humidity 72    
Maximum Humidity 88    
Minimum Humidity 48    
Precipitation  
Precipitation 0.05 in - - ()
Sea Level Pressure  
Sea Level Pressure 30.19 in    
Wind  
Wind Speed 5 mph (SE)    
Max Wind Speed 16 mph    
Max Gust Speed -    
Visibility 10 miles    
Events Rain    
Averages and records for this station are not official NWS values.
T = Trace of Precipitation, MM = Missing Value Source: NWS Daily Summary

Daily Weather History Graph

Daily Weather History Graph

Search for Another Location

Airport or City:

Trip Planner

Search our weather history database for the weather conditions in past years. The results will help you decide how hot, cold, wet, or windy it might be!

Date:

Astronomy

Jul. 17, 2013 Rise Set
Actual Time 5:52 AM MDT 8:08 PM MDT
Civil Twilight 5:23 AM MDT 8:36 PM MDT
Nautical Twilight 4:48 AM MDT 9:12 PM MDT
Astronomical Twilight 4:09 AM MDT 9:50 PM MDT
Moon 3:02 PM MDT (7/17) 12:57 AM MDT (7/17)
Length of Visible Light 15h 12m
Length of Day
14h 15m
Waxing Gibbous, 68% of the Moon is Illuminated
Jul 17
Waxing Gibbous
Jul 22
Full
Jul 29
Last Quarter
Aug 6
New
Aug 14
First Quarter

Hourly Weather History & Observations

Time (MDT) Temp. Dew Point Humidity Pressure Visibility Wind Dir Wind Speed Gust Speed Precip Events Conditions
12:53 AM 66.0 °F 59.0 °F 78% 30.16 in 10.0 mi SSE 4.6 mph - N/A   Scattered Clouds
1:05 AM 66.2 °F 59.0 °F 78% 30.30 in 10.0 mi Calm Calm - N/A   Mostly Cloudy
1:53 AM 66.9 °F 59.0 °F 76% 30.14 in 10.0 mi South 4.6 mph - N/A   Overcast
2:53 AM 66.9 °F 60.1 °F 79% 30.13 in 10.0 mi Calm Calm - N/A   Overcast
3:53 AM 66.0 °F 60.1 °F 81% 30.14 in 10.0 mi SE 3.5 mph - N/A   Mostly Cloudy
4:53 AM 64.9 °F 60.1 °F 84% 30.15 in 10.0 mi SE 3.5 mph - N/A   Mostly Cloudy
5:17 AM 64.4 °F 60.8 °F 88% 30.30 in 10.0 mi ENE 4.6 mph - N/A   Scattered Clouds
5:53 AM 64.9 °F 60.1 °F 84% 30.15 in 10.0 mi ENE 5.8 mph - 0.00 in Rain Light Rain
6:29 AM 64.4 °F 60.8 °F 88% 30.33 in 10.0 mi SE 4.6 mph - 0.00 in Rain Light Rain
6:53 AM 64.9 °F 60.1 °F 84% 30.19 in 10.0 mi SSE 4.6 mph - 0.00 in   Overcast
7:08 AM 64.4 °F 60.8 °F 88% 30.34 in 4.0 mi SSE 5.8 mph - 0.01 in Rain Rain
7:53 AM 64.9 °F 61.0 °F 87% 30.22 in 10.0 mi SE 4.6 mph - 0.05 in   Overcast
8:53 AM 66.9 °F 60.1 °F 79% 30.21 in 10.0 mi NE 3.5 mph - N/A   Mostly Cloudy
9:53 AM 68.0 °F 60.1 °F 76% 30.20 in 10.0 mi Calm Calm - N/A   Mostly Cloudy
10:53 AM 71.1 °F 61.0 °F 70% 30.22 in 10.0 mi South 5.8 mph - N/A   Overcast
11:53 AM 73.9 °F 57.9 °F 57% 30.22 in 10.0 mi SSE 8.1 mph - N/A   Mostly Cloudy
12:53 PM 73.9 °F 57.0 °F 55% 30.20 in 10.0 mi ESE 5.8 mph - 0.00 in   Overcast
1:53 PM 75.0 °F 57.0 °F 53% 30.18 in 10.0 mi SE 6.9 mph - N/A   Scattered Clouds
2:53 PM 77.0 °F 59.0 °F 54% 30.15 in 10.0 mi East 8.1 mph - N/A   Clear
3:53 PM 78.1 °F 59.0 °F 52% 30.14 in 10.0 mi SSE 8.1 mph - N/A   Partly Cloudy
4:53 PM 77.0 °F 59.0 °F 54% 30.13 in 10.0 mi ESE 8.1 mph - N/A   Partly Cloudy
5:53 PM 78.1 °F 57.0 °F 48% 30.12 in 10.0 mi ESE 4.6 mph - N/A   Partly Cloudy
6:53 PM 72.0 °F 59.0 °F 64% 30.15 in 10.0 mi South 16.1 mph - N/A   Overcast
7:53 PM 73.0 °F 61.0 °F 66% 30.15 in 10.0 mi SSE 10.4 mph - N/A   Clear
8:53 PM 71.1 °F 61.0 °F 70% 30.16 in 10.0 mi SE 8.1 mph - N/A   Partly Cloudy
9:53 PM 70.0 °F 60.1 °F 71% 30.18 in 10.0 mi SE 9.2 mph - N/A   Overcast
10:53 PM 68.0 °F 62.1 °F 81% 30.17 in 10.0 mi SSE 9.2 mph - N/A   Clear
11:53 PM 66.9 °F 62.1 °F 84% 30.17 in 10.0 mi SE 4.6 mph - N/A   Clear